This is the latest recevied weather packets stored in our database for station/object VK5GR-12. If no packets are shown the sender has not sent any weather packets the latest 10 day(s).
| Time | Temp. | Humidity | Pressure | Rain* | Wind** | Luminosity | Snow |
|---|---|---|---|---|---|---|---|
| 1788113898 | 10.56° C | 76% | 1030.4 hPa | 0 mm | - | 0 W/m² | - |
| 1788112993 | 10.56° C | 77% | 1030.4 hPa | 0 mm | - | 0 W/m² | - |
| 1788112088 | 10.56° C | 76% | 1030.3 hPa | 0 mm | - | 0 W/m² | - |
| 1788111185 | 11.11° C | 76% | 1030.7 hPa | 0 mm | - | 0 W/m² | - |
| 1788110285 | 11.11° C | 77% | 1030.7 hPa | 0 mm | - | 0 W/m² | - |
| 1788109392 | 11.11° C | 77% | 1030.9 hPa | 0 mm | - | 0 W/m² | - |
| 1788108477 | 10.56° C | 79% | 1031 hPa | 0 mm | - | 0 W/m² | - |
| 1788107576 | 10.56° C | 81% | 1031.3 hPa | 0 mm | - | 0 W/m² | - |
| 1788106674 | 10.56° C | 80% | 1031.4 hPa | 0 mm | - | 0 W/m² | - |
| 1788105775 | 10.56° C | 81% | 1031.4 hPa | 0 mm | - | 0 W/m² | - |
| 1788104873 | 10.56° C | 81% | 1031.5 hPa | 0 mm | - | 0 W/m² | - |
| 1788103972 | 11.11° C | 82% | 1031.4 hPa | 0 mm | - | 0 W/m² | - |
| 1788103071 | 10.56° C | 82% | 1031.7 hPa | 0 mm | - | 0 W/m² | - |
| 1788102165 | 11.11° C | 83% | 1031.7 hPa | 0 mm | - | 0 W/m² | - |
| 1788101261 | 10.56° C | 84% | 1031.6 hPa | 0 mm | - | 0 W/m² | - |
| 1788100357 | 10.56° C | 84% | 1031.7 hPa | 0 mm | - | 0 W/m² | - |
| 1788099455 | 10.56° C | 84% | 1031.9 hPa | 0 mm | - | 0 W/m² | - |
| 1788098551 | 10.56° C | 83% | 1032.1 hPa | 0 mm | - | 0 W/m² | - |
| 1788097649 | 11.11° C | 82% | 1032.2 hPa | 0 mm | - | 0 W/m² | - |
| 1788096747 | 11.11° C | 80% | 1032.3 hPa | 0 mm | - | 0 W/m² | - |
| 1788095842 | 11.67° C | 78% | 1032.3 hPa | 0 mm | - | 0 W/m² | - |
| 1788094938 | 11.67° C | 77% | 1032.2 hPa | 0 mm | - | 0 W/m² | - |
| 1788094036 | 12.22° C | 76% | 1032.2 hPa | 0 mm | - | 0 W/m² | - |
| 1788093137 | 12.78° C | 75% | 1032.1 hPa | 0 mm | - | 0 W/m² | - |
| 1788092236 | 12.78° C | 75% | 1032.2 hPa | 0 mm | - | 0 W/m² | - |
* Rain latest hour (hover to see other rain measurements)
** Current wind speed in m/s (hover to see current wind gust speed)